Wetterdaten: aktuell Samstag, 20.07.2019 16:30
Datum Zeit Temp. Feuchte Luftdruck Nieders. Wind Richtung Richtung Sonnenschein Solar Taupunkt Windchill Windben
20.07.2019 16:30 32,1 C 35 % 1009,4 hPa 0,0 l/m 4,7 km/h (1 Bft) S-SO 157 5 min 272 W/m 14,7 C 32,1 C 20,9 km/h (4 Bft)
20.07.2019 16:25 32,6 C 34 % 1009,5 hPa 0,0 l/m 7,3 km/h (2 Bft) S-SW 203 5 min 392 W/m 14,7 C 32,6 C 20,9 km/h (4 Bft)
20.07.2019 16:20 32,7 C 35 % 1009,7 hPa 0,0 l/m 8,6 km/h (2 Bft) SO 143 5 min 536 W/m 15,2 C 32,7 C 22,5 km/h (4 Bft)
20.07.2019 16:15 32,6 C 36 % 1009,9 hPa 0,0 l/m 4,9 km/h (1 Bft) S-SW 205 5 min 663 W/m 15,6 C 32,6 C 14,5 km/h (3 Bft)
20.07.2019 16:10 32,3 C 37 % 1009,8 hPa 0,0 l/m 3,1 km/h (1 Bft) SO 130 5 min 705 W/m 15,7 C 32,3 C 17,7 km/h (3 Bft)
20.07.2019 16:05 32,2 C 37 % 1010,0 hPa 0,0 l/m 6,0 km/h (2 Bft) S-SO 163 5 min 689 W/m 15,6 C 32,2 C 20,9 km/h (4 Bft)
20.07.2019 16:00 32,2 C 38 % 1009,9 hPa 0,0 l/m 5,4 km/h (2 Bft) S-SW 192 5 min 297 W/m 16,0 C 32,2 C 35,4 km/h (5 Bft)
20.07.2019 15:55 31,9 C 38 % 1010,0 hPa 0,0 l/m 3,6 km/h (1 Bft) S-SO 162 5 min 742 W/m 15,8 C 31,9 C 19,3 km/h (3 Bft)
20.07.2019 15:50 31,3 C 39 % 1010,0 hPa 0,0 l/m 7,6 km/h (2 Bft) O-SO 117 5 min 791 W/m 15,7 C 31,2 C 16,1 km/h (3 Bft)
20.07.2019 15:45 31,1 C 38 % 1010,0 hPa 0,0 l/m 8,4 km/h (2 Bft) SO 136 5 min 281 W/m 15,1 C 31,0 C 20,9 km/h (4 Bft)
20.07.2019 15:40 31,4 C 38 % 1010,1 hPa 0,0 l/m 7,4 km/h (2 Bft) S-SO 161 5 min 563 W/m 15,3 C 31,3 C 20,9 km/h (4 Bft)
20.07.2019 15:35 31,3 C 39 % 1010,2 hPa 0,0 l/m 5,8 km/h (2 Bft) S-SO 149 5 min 779 W/m 15,7 C 31,3 C 17,7 km/h (3 Bft)
20.07.2019 15:30 31,4 C 37 % 1010,3 hPa 0,0 l/m 6,0 km/h (2 Bft) SO 146 5 min 766 W/m 14,9 C 31,4 C 17,7 km/h (3 Bft)
20.07.2019 15:25 31,6 C 37 % 1010,4 hPa 0,0 l/m 8,6 km/h (2 Bft) W 260 5 min 786 W/m 15,1 C 31,5 C 24,1 km/h (4 Bft)
20.07.2019 15:20 31,3 C 37 % 1010,4 hPa 0,0 l/m 10,0 km/h (2 Bft) O-SO 111 5 min 770 W/m 14,8 C 31,1 C 27,4 km/h (5 Bft)
20.07.2019 15:15 31,3 C 38 % 1010,5 hPa 0,0 l/m 3,6 km/h (1 Bft) SO 125 5 min 745 W/m 15,3 C 31,3 C 16,1 km/h (3 Bft)
20.07.2019 15:10 31,3 C 38 % 1010,6 hPa 0,0 l/m 6,2 km/h (2 Bft) SO 126 5 min 754 W/m 15,3 C 31,3 C 19,3 km/h (3 Bft)
20.07.2019 15:05 31,3 C 38 % 1010,8 hPa 0,0 l/m 8,3 km/h (2 Bft) S-SO 163 5 min 758 W/m 15,3 C 31,2 C 20,9 km/h (4 Bft)
20.07.2019 15:00 31,1 C 40 % 1010,8 hPa 0,0 l/m 11,1 km/h (2 Bft) SO 140 5 min 819 W/m 15,9 C 30,9 C 20,9 km/h (4 Bft)
20.07.2019 14:55 30,7 C 42 % 1010,8 hPa 0,0 l/m 3,1 km/h (1 Bft) S-SW 194 5 min 851 W/m 16,3 C 30,7 C 12,9 km/h (3 Bft)
20.07.2019 14:50 30,3 C 42 % 1010,9 hPa 0,0 l/m 2,9 km/h (1 Bft) S-SO 161 5 min 849 W/m 15,9 C 30,3 C 14,5 km/h (3 Bft)
20.07.2019 14:45 30,1 C 42 % 1011,0 hPa 0,0 l/m 4,9 km/h (1 Bft) S-SW 199 5 min 520 W/m 15,7 C 30,1 C 11,3 km/h (2 Bft)
20.07.2019 14:40 30,1 C 41 % 1011,0 hPa 0,0 l/m 3,9 km/h (1 Bft) SW 215 5 min 431 W/m 15,4 C 30,1 C 11,3 km/h (2 Bft)
20.07.2019 14:35 29,8 C 43 % 1011,0 hPa 0,0 l/m 4,9 km/h (1 Bft) S-SO 159 5 min 675 W/m 15,8 C 29,8 C 12,9 km/h (3 Bft)
20.07.2019 14:30 29,7 C 42 % 1011,0 hPa 0,0 l/m 5,5 km/h (2 Bft) S-SW 209 5 min 417 W/m 15,4 C 29,7 C 14,5 km/h (3 Bft)
20.07.2019 14:25 29,7 C 43 % 1011,0 hPa 0,0 l/m 4,6 km/h (1 Bft) S-SW 199 5 min 318 W/m 15,8 C 29,7 C 17,7 km/h (3 Bft)
20.07.2019 14:20 29,6 C 43 % 1011,0 hPa 0,0 l/m 4,8 km/h (1 Bft) SW 226 5 min 608 W/m 15,7 C 29,6 C 16,1 km/h (3 Bft)
20.07.2019 14:15 29,6 C 43 % 1011,2 hPa 0,0 l/m 4,1 km/h (1 Bft) S-SW 208 5 min 466 W/m 15,7 C 29,6 C 14,5 km/h (3 Bft)
20.07.2019 14:10 29,7 C 43 % 1011,2 hPa 0,0 l/m 6,0 km/h (2 Bft) S-SW 194 5 min 378 W/m 15,8 C 29,7 C 17,7 km/h (3 Bft)
20.07.2019 14:05 29,9 C 43 % 1011,3 hPa 0,0 l/m 4,7 km/h (1 Bft) SW 219 5 min 367 W/m 15,9 C 29,9 C 16,1 km/h (3 Bft)
20.07.2019 14:00 29,9 C 43 % 1011,4 hPa 0,0 l/m 3,7 km/h (1 Bft) S 187 5 min 531 W/m 15,9 C 29,9 C 14,5 km/h (3 Bft)
20.07.2019 13:55 30,1 C 43 % 1011,3 hPa 0,0 l/m 2,6 km/h (1 Bft) S-SO 149 5 min 427 W/m 16,1 C 30,1 C 16,1 km/h (3 Bft)
20.07.2019 13:50 30,2 C 43 % 1011,3 hPa 0,0 l/m 3,9 km/h (1 Bft) S-SO 150 5 min 425 W/m 16,2 C 30,2 C 11,3 km/h (2 Bft)
20.07.2019 13:45 30,3 C 43 % 1011,4 hPa 0,0 l/m 5,4 km/h (2 Bft) S-SW 211 5 min 570 W/m 16,3 C 30,3 C 19,3 km/h (3 Bft)
20.07.2019 13:40 30,1 C 43 % 1011,3 hPa 0,0 l/m 3,0 km/h (1 Bft) S-SW 205 5 min 809 W/m 16,1 C 30,1 C 14,5 km/h (3 Bft)
20.07.2019 13:35 29,7 C 43 % 1011,4 hPa 0,0 l/m 4,1 km/h (1 Bft) W-NW 286 5 min 868 W/m 15,8 C 29,7 C 14,5 km/h (3 Bft)
20.07.2019 13:30 29,6 C 45 % 1011,3 hPa 0,0 l/m 4,3 km/h (1 Bft) S 171 5 min 659 W/m 16,4 C 29,6 C 25,7 km/h (4 Bft)
20.07.2019 13:25 29,6 C 45 % 1011,4 hPa 0,0 l/m 3,8 km/h (1 Bft) SO 140 5 min 362 W/m 16,4 C 29,6 C 14,5 km/h (3 Bft)
20.07.2019 13:20 29,6 C 45 % 1011,5 hPa 0,0 l/m 5,5 km/h (2 Bft) S-SW 212 5 min 670 W/m 16,4 C 29,6 C 16,1 km/h (3 Bft)
20.07.2019 13:15 29,7 C 46 % 1011,3 hPa 0,0 l/m 1,8 km/h (1 Bft) S-SW 195 5 min 359 W/m 16,8 C 29,7 C 11,3 km/h (2 Bft)
20.07.2019 13:10 29,7 C 45 % 1011,4 hPa 0,0 l/m 6,4 km/h (2 Bft) SW 221 5 min 439 W/m 16,5 C 29,7 C 16,1 km/h (3 Bft)
20.07.2019 13:05 29,8 C 44 % 1011,4 hPa 0,0 l/m 7,7 km/h (2 Bft) S 173 5 min 962 W/m 16,2 C 29,7 C 19,3 km/h (3 Bft)
20.07.2019 13:00 29,9 C 45 % 1011,5 hPa 0,0 l/m 3,3 km/h (1 Bft) S-SO 150 5 min 874 W/m 16,7 C 29,9 C 12,9 km/h (3 Bft)
20.07.2019 12:55 29,8 C 46 % 1011,5 hPa 0,0 l/m 3,3 km/h (1 Bft) S 184 5 min 867 W/m 16,9 C 29,8 C 11,3 km/h (2 Bft)
20.07.2019 12:50 29,8 C 45 % 1011,5 hPa 0,0 l/m 3,7 km/h (1 Bft) SO 126 5 min 758 W/m 16,6 C 29,8 C 16,1 km/h (3 Bft)
20.07.2019 12:45 29,4 C 46 % 1011,5 hPa 0,0 l/m 4,9 km/h (1 Bft) S 178 5 min 863 W/m 16,5 C 29,4 C 14,5 km/h (3 Bft)
20.07.2019 12:40 29,4 C 45 % 1011,5 hPa 0,0 l/m 5,7 km/h (2 Bft) S-SW 198 5 min 819 W/m 16,2 C 29,4 C 22,5 km/h (4 Bft)
20.07.2019 12:35 29,4 C 46 % 1011,5 hPa 0,0 l/m 3,9 km/h (1 Bft) S 173 5 min 944 W/m 16,5 C 29,4 C 12,9 km/h (3 Bft)
20.07.2019 12:30 29,2 C 47 % 1011,5 hPa 0,0 l/m 9,1 km/h (2 Bft) SO 138 5 min 858 W/m 16,7 C 28,9 C 14,5 km/h (3 Bft)
20.07.2019 12:25 29,0 C 46 % 1011,5 hPa 0,0 l/m 5,5 km/h (2 Bft) SO 134 5 min 824 W/m 16,2 C 29,0 C 16,1 km/h (3 Bft)
20.07.2019 12:20 28,7 C 49 % 1011,6 hPa 0,0 l/m 4,5 km/h (1 Bft) W-SW 250 5 min 782 W/m 16,9 C 28,7 C 14,5 km/h (3 Bft)
20.07.2019 12:15 28,6 C 49 % 1011,7 hPa 0,0 l/m 4,6 km/h (1 Bft) S 169 5 min 508 W/m 16,8 C 28,6 C 14,5 km/h (3 Bft)
20.07.2019 12:10 28,7 C 47 % 1011,9 hPa 0,0 l/m 3,6 km/h (1 Bft) S-SW 192 5 min 737 W/m 16,3 C 28,7 C 12,9 km/h (3 Bft)
20.07.2019 12:05 28,6 C 48 % 1011,8 hPa 0,0 l/m 6,5 km/h (2 Bft) S-SW 198 5 min 664 W/m 16,5 C 28,6 C 16,1 km/h (3 Bft)
20.07.2019 12:00 28,5 C 48 % 1011,9 hPa 0,0 l/m 3,3 km/h (1 Bft) S 185 5 min 765 W/m 16,4 C 28,5 C 11,3 km/h (2 Bft)
20.07.2019 11:55 28,4 C 48 % 1011,9 hPa 0,0 l/m 7,2 km/h (2 Bft) SW 225 5 min 803 W/m 16,3 C 28,3 C 16,1 km/h (3 Bft)
20.07.2019 11:50 28,4 C 49 % 1012,0 hPa 0,0 l/m 7,0 km/h (2 Bft) SW 214 5 min 780 W/m 16,6 C 28,3 C 19,3 km/h (3 Bft)
20.07.2019 11:45 28,4 C 47 % 1012,1 hPa 0,0 l/m 5,2 km/h (1 Bft) S-SO 155 5 min 673 W/m 16,0 C 28,4 C 12,9 km/h (3 Bft)
20.07.2019 11:40 28,5 C 49 % 1012,0 hPa 0,0 l/m 8,2 km/h (2 Bft) S-SO 164 5 min 654 W/m 16,7 C 28,2 C 17,7 km/h (3 Bft)
20.07.2019 11:35 28,2 C 48 % 1012,0 hPa 0,0 l/m 11,7 km/h (2 Bft) O-SO 111 5 min 795 W/m 16,1 C 27,5 C 20,9 km/h (4 Bft)
20.07.2019 11:30 28,1 C 49 % 1012,0 hPa 0,0 l/m 8,8 km/h (2 Bft) SO 130 5 min 784 W/m 16,4 C 27,7 C 25,7 km/h (4 Bft)
20.07.2019 11:25 28,1 C 49 % 1012,0 hPa 0,0 l/m 10,5 km/h (2 Bft) S 176 5 min 619 W/m 16,4 C 27,5 C 20,9 km/h (4 Bft)
20.07.2019 11:20 28,1 C 49 % 1012,0 hPa 0,0 l/m 7,1 km/h (2 Bft) S-SO 159 5 min 763 W/m 16,4 C 28,0 C 14,5 km/h (3 Bft)
20.07.2019 11:15 27,8 C 50 % 1012,0 hPa 0,0 l/m 8,0 km/h (2 Bft) S-SO 156 5 min 712 W/m 16,4 C 27,5 C 20,9 km/h (4 Bft)
20.07.2019 11:10 27,4 C 51 % 1012,1 hPa 0,0 l/m 10,3 km/h (2 Bft) O-SO 118 5 min 715 W/m 16,3 C 26,8 C 19,3 km/h (3 Bft)
20.07.2019 11:05 27,3 C 51 % 1012,2 hPa 0,0 l/m 8,9 km/h (2 Bft) S-SO 150 5 min 708 W/m 16,3 C 26,9 C 17,7 km/h (3 Bft)
20.07.2019 11:00 27,2 C 51 % 1012,1 hPa 0,0 l/m 11,1 km/h (2 Bft) S-SO 155 5 min 763 W/m 16,2 C 26,4 C 19,3 km/h (3 Bft)
20.07.2019 10:55 27,3 C 50 % 1012,1 hPa 0,0 l/m 7,4 km/h (2 Bft) SO 132 5 min 339 W/m 15,9 C 27,1 C 22,5 km/h (4 Bft)
20.07.2019 10:50 27,3 C 51 % 1012,1 hPa 0,0 l/m 12,5 km/h (2 Bft) SO 124 5 min 635 W/m 16,3 C 26,4 C 20,9 km/h (4 Bft)
20.07.2019 10:45 27,3 C 50 % 1012,2 hPa 0,0 l/m 5,4 km/h (2 Bft) O-SO 122 5 min 561 W/m 15,9 C 27,3 C 20,9 km/h (4 Bft)
20.07.2019 10:40 27,1 C 51 % 1012,2 hPa 0,0 l/m 11,3 km/h (2 Bft) O-SO 119 5 min 599 W/m 16,1 C 26,3 C 20,9 km/h (4 Bft)
20.07.2019 10:35 26,9 C 51 % 1012,3 hPa 0,0 l/m 9,7 km/h (2 Bft) SO 139 5 min 686 W/m 15,9 C 26,3 C 24,1 km/h (4 Bft)
20.07.2019 10:30 26,6 C 53 % 1012,3 hPa 0,0 l/m 11,2 km/h (2 Bft) S-SO 159 5 min 715 W/m 16,2 C 25,7 C 19,3 km/h (3 Bft)
20.07.2019 10:25 26,3 C 54 % 1012,3 hPa 0,0 l/m 9,7 km/h (2 Bft) SO 136 5 min 573 W/m 16,2 C 25,7 C 19,3 km/h (3 Bft)
20.07.2019 10:20 26,1 C 55 % 1012,2 hPa 0,0 l/m 9,5 km/h (2 Bft) S-SO 155 5 min 673 W/m 16,3 C 25,5 C 17,7 km/h (3 Bft)
20.07.2019 10:15 25,7 C 56 % 1012,3 hPa 0,0 l/m 10,9 km/h (2 Bft) S 176 5 min 668 W/m 16,2 C 24,8 C 17,7 km/h (3 Bft)
20.07.2019 10:10 25,6 C 56 % 1012,4 hPa 0,0 l/m 8,2 km/h (2 Bft) S 184 5 min 570 W/m 16,2 C 25,2 C 17,7 km/h (3 Bft)
20.07.2019 10:05 25,4 C 57 % 1012,5 hPa 0,0 l/m 9,5 km/h (2 Bft) S-SO 153 5 min 531 W/m 16,2 C 24,7 C 17,7 km/h (3 Bft)
20.07.2019 10:00 25,3 C 58 % 1012,5 hPa 0,0 l/m 9,5 km/h (2 Bft) S-SO 160 5 min 533 W/m 16,4 C 24,6 C 20,9 km/h (4 Bft)
20.07.2019 09:55 24,9 C 59 % 1012,6 hPa 0,0 l/m 8,3 km/h (2 Bft) SO 145 5 min 531 W/m 16,3 C 24,4 C 16,1 km/h (3 Bft)
20.07.2019 09:50 24,4 C 63 % 1012,6 hPa 0,0 l/m 2,4 km/h (1 Bft) S-SW 204 5 min 592 W/m 16,9 C 24,4 C 8,0 km/h (2 Bft)
20.07.2019 09:45 24,1 C 63 % 1012,6 hPa 0,0 l/m 1,8 km/h (1 Bft) O-SO 121 5 min 564 W/m 16,6 C 24,1 C 6,4 km/h (2 Bft)
20.07.2019 09:40 23,6 C 65 % 1012,7 hPa 0,0 l/m 1,6 km/h (1 Bft) O-SO 122 5 min 529 W/m 16,6 C 23,6 C 8,0 km/h (2 Bft)
20.07.2019 09:35 23,2 C 69 % 1012,7 hPa 0,0 l/m 1,0 km/h (0 Bft) S-SW 192 5 min 520 W/m 17,2 C 23,2 C 6,4 km/h (2 Bft)
20.07.2019 09:30 22,8 C 70 % 1012,7 hPa 0,0 l/m 1,7 km/h (1 Bft) SW 227 5 min 540 W/m 17,0 C 22,8 C 6,4 km/h (2 Bft)
20.07.2019 09:25 22,4 C 72 % 1012,8 hPa 0,0 l/m 1,8 km/h (1 Bft) SW 218 5 min 534 W/m 17,1 C 22,4 C 6,4 km/h (2 Bft)
20.07.2019 09:20 22,1 C 74 % 1012,8 hPa 0,0 l/m 0,1 km/h (0 Bft) SW 221 5 min 490 W/m 17,2 C 22,1 C 3,2 km/h (1 Bft)
20.07.2019 09:15 21,7 C 73 % 1012,8 hPa 0,0 l/m 0,5 km/h (0 Bft) SW 218 5 min 536 W/m 16,6 C 21,7 C 4,8 km/h (1 Bft)
20.07.2019 09:10 21,3 C 76 % 1012,8 hPa 0,0 l/m 0,1 km/h (0 Bft) SW 217 5 min 432 W/m 16,9 C 21,3 C 1,6 km/h (1 Bft)
20.07.2019 09:05 20,9 C 76 % 1012,8 hPa 0,0 l/m 0,3 km/h (0 Bft) SW 218 5 min 385 W/m 16,5 C 20,9 C 4,8 km/h (1 Bft)
20.07.2019 09:00 20,6 C 79 % 1013,0 hPa 0,0 l/m 1,1 km/h (1 Bft) SW 217 5 min 345 W/m 16,8 C 20,6 C 8,0 km/h (2 Bft)
20.07.2019 08:55 20,0 C 81 % 1013,0 hPa 0,0 l/m 0,2 km/h (0 Bft) S-SW 207 5 min 410 W/m 16,6 C 20,0 C 3,2 km/h (1 Bft)
20.07.2019 08:50 19,6 C 82 % 1013,0 hPa 0,0 l/m 0,2 km/h (0 Bft) S-SW 207 5 min 468 W/m 16,4 C 19,6 C 3,2 km/h (1 Bft)
20.07.2019 08:45 19,2 C 84 % 1013,0 hPa 0,0 l/m 0,7 km/h (0 Bft) S-SW 207 5 min 394 W/m 16,4 C 19,2 C 4,8 km/h (1 Bft)
20.07.2019 08:40 18,7 C 86 % 1013,0 hPa 0,0 l/m 1,0 km/h (0 Bft) S-SW 207 5 min 438 W/m 16,3 C 18,7 C 6,4 km/h (2 Bft)
20.07.2019 08:35 18,2 C 87 % 1012,9 hPa 0,0 l/m 0,3 km/h (0 Bft) S-SW 205 5 min 385 W/m 16,0 C 18,2 C 3,2 km/h (1 Bft)
20.07.2019 08:30 17,8 C 89 % 1012,9 hPa 0,0 l/m 1,7 km/h (1 Bft) S-SW 203 5 min 174 W/m 16,0 C 17,8 C 4,8 km/h (1 Bft)
20.07.2019 08:25 17,3 C 90 % 1012,9 hPa 0,0 l/m 0,0 km/h (0 Bft) S-SW 192 0 min 151 W/m 15,6 C 17,3 C 0,0 km/h (0 Bft)
20.07.2019 08:20 17,0 C 91 % 1012,8 hPa 0,0 l/m 0,0 km/h (0 Bft) S-SW 192 0 min 54 W/m 15,5 C 17,0 C 0,0 km/h (0 Bft)
20.07.2019 08:15 16,7 C 91 % 1012,8 hPa 0,0 l/m 0,0 km/h (0 Bft) S-SW 192 0 min 51 W/m 15,2 C 16,7 C 0,0 km/h (0 Bft)
20.07.2019 08:10 16,4 C 92 % 1012,9 hPa 0,0 l/m 0,0 km/h (0 Bft) S-SW 192 0 min 42 W/m 15,1 C 16,4 C 0,0 km/h (0 Bft)
20.07.2019 08:05 16,2 C 93 % 1013,0 hPa 0,0 l/m 0,0 km/h (0 Bft) S-SW 192 0 min 40 W/m 15,1 C 16,2 C 0,0 km/h (0 Bft)
20.07.2019 08:00 15,9 C 93 % 1012,9 hPa 0,0 l/m 0,0 km/h (0 Bft) S-SW 192 0 min 39 W/m 14,8 C 15,9 C 0,0 km/h (0 Bft)
20.07.2019 07:55 15,6 C 93 % 1012,9 hPa 0,0 l/m 0,0 km/h (0 Bft) S-SW 192 0 min 37 W/m 14,5 C 15,6 C 0,0 km/h (0 Bft)
20.07.2019 07:50 15,3 C 94 % 1012,9 hPa 0,0 l/m 0,0 km/h (0 Bft) S-SW 192 0 min 35 W/m 14,3 C 15,3 C 0,0 km/h (0 Bft)
20.07.2019 07:45 15,1 C 94 % 1012,9 hPa 0,0 l/m 0,0 km/h (0 Bft) S-SW 192 0 min 33 W/m 14,1 C 15,1 C 0,0 km/h (0 Bft)
20.07.2019 07:40 14,8 C 94 % 1012,9 hPa 0,0 l/m 0,0 km/h (0 Bft) S-SW 192 0 min 33 W/m 13,8 C 14,8 C 0,0 km/h (0 Bft)
20.07.2019 07:35 14,7 C 95 % 1012,9 hPa 0,0 l/m 0,0 km/h (0 Bft) S-SW 192 0 min 32 W/m 13,9 C 14,7 C 0,0 km/h (0 Bft)
20.07.2019 07:30 14,5 C 95 % 1013,0 hPa 0,0 l/m 0,0 km/h (0 Bft) S 191 0 min 28 W/m 13,7 C 14,5 C 0,0 km/h (0 Bft)
20.07.2019 07:25 14,3 C 95 % 1013,0 hPa 0,0 l/m 0,0 km/h (0 Bft) S-SW 192 0 min 28 W/m 13,5 C 14,3 C 0,0 km/h (0 Bft)
20.07.2019 07:20 14,3 C 95 % 1013,0 hPa 0,0 l/m 0,0 km/h (0 Bft) S-SW 192 0 min 26 W/m 13,5 C 14,3 C 0,0 km/h (0 Bft)
20.07.2019 07:15 14,1 C 95 % 1013,1 hPa 0,0 l/m 0,0 km/h (0 Bft) S 191 0 min 28 W/m 13,3 C 14,1 C 0,0 km/h (0 Bft)
20.07.2019 07:10 13,9 C 95 % 1013,1 hPa 0,0 l/m 0,0 km/h (0 Bft) S-SW 192 0 min 25 W/m 13,1 C 13,9 C 0,0 km/h (0 Bft)
20.07.2019 07:05 13,7 C 95 % 1013,2 hPa 0,0 l/m 0,0 km/h (0 Bft) S-SW 192 0 min 23 W/m 12,9 C 13,7 C 0,0 km/h (0 Bft)
20.07.2019 07:00 13,4 C 94 % 1013,2 hPa 0,0 l/m 0,0 km/h (0 Bft) S-SW 192 0 min 23 W/m 12,5 C 13,4 C 0,0 km/h (0 Bft)
20.07.2019 06:55 13,3 C 94 % 1013,3 hPa 0,0 l/m 0,0 km/h (0 Bft) S 191 0 min 23 W/m 12,4 C 13,3 C 0,0 km/h (0 Bft)
20.07.2019 06:50 13,2 C 94 % 1013,2 hPa 0,0 l/m 0,0 km/h (0 Bft) S 191 0 min 21 W/m 12,3 C 13,2 C 0,0 km/h (0 Bft)
20.07.2019 06:45 13,2 C 94 % 1013,2 hPa 0,0 l/m 0,0 km/h (0 Bft) S-SW 192 0 min 19 W/m 12,3 C 13,2 C 0,0 km/h (0 Bft)
20.07.2019 06:40 13,2 C 94 % 1013,2 hPa 0,0 l/m 0,0 km/h (0 Bft) S 191 0 min 18 W/m 12,3 C 13,2 C 0,0 km/h (0 Bft)
20.07.2019 06:35 13,1 C 94 % 1013,2 hPa 0,0 l/m 0,0 km/h (0 Bft) S-SW 192 0 min 19 W/m 12,2 C 13,1 C 0,0 km/h (0 Bft)
20.07.2019 06:30 13,1 C 94 % 1013,2 hPa 0,0 l/m 0,0 km/h (0 Bft) S-SW 192 0 min 16 W/m 12,2 C 13,1 C 0,0 km/h (0 Bft)
20.07.2019 06:25 13,1 C 94 % 1013,3 hPa 0,0 l/m 0,0 km/h (0 Bft) S-SW 192 0 min 14 W/m 12,2 C 13,1 C 0,0 km/h (0 Bft)
20.07.2019 06:20 13,0 C 94 % 1013,3 hPa 0,0 l/m 0,0 km/h (0 Bft) S 191 0 min 11 W/m 12,1 C 13,0 C 0,0 km/h (0 Bft)
20.07.2019 06:15 12,9 C 93 % 1013,3 hPa 0,0 l/m 0,0 km/h (0 Bft) S 191 0 min 9 W/m 11,8 C 12,9 C 0,0 km/h (0 Bft)
20.07.2019 06:10 12,8 C 94 % 1013,3 hPa 0,0 l/m 0,0 km/h (0 Bft) S-SW 192 0 min 9 W/m 11,9 C 12,8 C 0,0 km/h (0 Bft)
20.07.2019 06:05 12,8 C 93 % 1013,4 hPa 0,0 l/m 0,0 km/h (0 Bft) S-SW 192 0 min 7 W/m 11,7 C 12,8 C 0,0 km/h (0 Bft)
20.07.2019 05:55 12,8 C 93 % 1013,3 hPa 0,0 l/m 0,0 km/h (0 Bft) N 0 0 min 5 W/m 11,7 C 12,8 C 0,0 km/h (0 Bft)
20.07.2019 05:50 12,8 C 93 % 1013,4 hPa 0,0 l/m 0,0 km/h (0 Bft) N 0 0 min 5 W/m 11,7 C 12,8 C 0,0 km/h (0 Bft)
20.07.2019 05:45 13,0 C 92 % 1013,4 hPa 0,0 l/m 0,0 km/h (0 Bft) N 0 0 min 0 W/m 11,7 C 13,0 C 0,0 km/h (0 Bft)
20.07.2019 05:40 13,1 C 93 % 1013,5 hPa 0,0 l/m 0,0 km/h (0 Bft) N 0 0 min 0 W/m 12,0 C 13,1 C 0,0 km/h (0 Bft)
20.07.2019 05:35 13,2 C 93 % 1013,5 hPa 0,0 l/m 0,0 km/h (0 Bft) N 0 0 min 0 W/m 12,1 C 13,2 C 0,0 km/h (0 Bft)
20.07.2019 05:30 13,2 C 92 % 1013,5 hPa 0,0 l/m 0,0 km/h (0 Bft) N 0 0 min 0 W/m 11,9 C 13,2 C 0,0 km/h (0 Bft)
20.07.2019 05:25 13,3 C 92 % 1013,5 hPa 0,0 l/m 0,0 km/h (0 Bft) N 0 0 min 0 W/m 12,0 C 13,3 C 0,0 km/h (0 Bft)
20.07.2019 05:20 13,4 C 92 % 1013,6 hPa 0,0 l/m 0,0 km/h (0 Bft) N 0 0 min 0 W/m 12,1 C 13,4 C 0,0 km/h (0 Bft)
20.07.2019 05:15 13,5 C 92 % 1013,5 hPa 0,0 l/m 0,0 km/h (0 Bft) N 0 0 min 0 W/m 12,2 C 13,5 C 0,0 km/h (0 Bft)
20.07.2019 05:10 13,6 C 92 % 1013,5 hPa 0,0 l/m 0,0 km/h (0 Bft) N 0 0 min 0 W/m 12,3 C 13,6 C 0,0 km/h (0 Bft)
20.07.2019 05:05 13,6 C 92 % 1013,5 hPa 0,0 l/m 0,0 km/h (0 Bft) N 0 0 min 0 W/m 12,3 C 13,6 C 0,0 km/h (0 Bft)
20.07.2019 05:00 13,6 C 92 % 1013,5 hPa 0,0 l/m 0,0 km/h (0 Bft) N 0 0 min 0 W/m 12,3 C 13,6 C 0,0 km/h (0 Bft)
20.07.2019 04:55 13,6 C 92 % 1013,5 hPa 0,0 l/m 0,0 km/h (0 Bft) N 0 0 min 0 W/m 12,3 C 13,6 C 0,0 km/h (0 Bft)
20.07.2019 04:50 13,7 C 92 % 1013,4 hPa 0,0 l/m 0,0 km/h (0 Bft) N 0 0 min 0 W/m 12,4 C 13,7 C 0,0 km/h (0 Bft)
20.07.2019 04:45 13,7 C 91 % 1013,4 hPa 0,0 l/m 0,0 km/h (0 Bft) N 0 0 min 0 W/m 12,3 C 13,7 C 0,0 km/h (0 Bft)
20.07.2019 04:40 13,7 C 91 % 1013,5 hPa 0,0 l/m 0,0 km/h (0 Bft) N 0 0 min 0 W/m 12,3 C 13,7 C 0,0 km/h (0 Bft)
20.07.2019 04:35 13,9 C 91 % 1013,5 hPa 0,0 l/m 0,0 km/h (0 Bft) N 0 0 min 0 W/m 12,5 C 13,9 C 0,0 km/h (0 Bft)
20.07.2019 04:30 14,1 C 92 % 1013,4 hPa 0,0 l/m 0,0 km/h (0 Bft) N 0 0 min 0 W/m 12,8 C 14,1 C 0,0 km/h (0 Bft)
20.07.2019 04:25 14,0 C 91 % 1013,5 hPa 0,0 l/m 0,0 km/h (0 Bft) N 0 0 min 0 W/m 12,6 C 14,0 C 0,0 km/h (0 Bft)
20.07.2019 04:20 14,1 C 91 % 1013,5 hPa 0,0 l/m 0,0 km/h (0 Bft) N 0 0 min 0 W/m 12,7 C 14,1 C 0,0 km/h (0 Bft)
20.07.2019 04:15 14,2 C 90 % 1013,5 hPa 0,0 l/m 0,0 km/h (0 Bft) N 0 0 min 0 W/m 12,6 C 14,2 C 0,0 km/h (0 Bft)
20.07.2019 04:10 14,3 C 90 % 1013,6 hPa 0,0 l/m 0,0 km/h (0 Bft) N 0 0 min 0 W/m 12,7 C 14,3 C 0,0 km/h (0 Bft)
20.07.2019 04:05 14,6 C 90 % 1013,6 hPa 0,0 l/m 0,0 km/h (0 Bft) N 0 0 min 0 W/m 13,0 C 14,6 C 0,0 km/h (0 Bft)
20.07.2019 04:00 14,7 C 91 % 1013,6 hPa 0,0 l/m 0,0 km/h (0 Bft) N 0 0 min 0 W/m 13,2 C 14,7 C 0,0 km/h (0 Bft)
20.07.2019 03:55 14,8 C 91 % 1013,6 hPa 0,0 l/m 0,0 km/h (0 Bft) N 0 0 min 0 W/m 13,3 C 14,8 C 0,0 km/h (0 Bft)
20.07.2019 03:50 14,8 C 91 % 1013,6 hPa 0,0 l/m 0,0 km/h (0 Bft) N 0 0 min 0 W/m 13,3 C 14,8 C 0,0 km/h (0 Bft)
20.07.2019 03:45 14,8 C 91 % 1013,7 hPa 0,0 l/m 0,0 km/h (0 Bft) N 0 0 min 0 W/m 13,3 C 14,8 C 0,0 km/h (0 Bft)
20.07.2019 03:40 14,9 C 91 % 1013,7 hPa 0,0 l/m 0,0 km/h (0 Bft) N 0 0 min 0 W/m 13,4 C 14,9 C 0,0 km/h (0 Bft)
20.07.2019 03:35 14,9 C 91 % 1013,7 hPa 0,0 l/m 0,0 km/h (0 Bft) N 0 0 min 0 W/m 13,4 C 14,9 C 0,0 km/h (0 Bft)
20.07.2019 03:30 14,9 C 91 % 1013,6 hPa 0,0 l/m 0,0 km/h (0 Bft) N 0 0 min 0 W/m 13,4 C 14,9 C 0,0 km/h (0 Bft)
20.07.2019 03:25 14,9 C 91 % 1013,6 hPa 0,0 l/m 0,0 km/h (0 Bft) N 0 0 min 0 W/m 13,4 C 14,9 C 0,0 km/h (0 Bft)
20.07.2019 03:20 14,9 C 91 % 1013,6 hPa 0,0 l/m 0,0 km/h (0 Bft) N 0 0 min 0 W/m 13,4 C 14,9 C 0,0 km/h (0 Bft)
20.07.2019 03:15 14,9 C 91 % 1013,6 hPa 0,0 l/m 0,0 km/h (0 Bft) N 0 0 min 0 W/m 13,4 C 14,9 C 0,0 km/h (0 Bft)
20.07.2019 03:10 14,9 C 91 % 1013,7 hPa 0,0 l/m 0,0 km/h (0 Bft) N 0 0 min 0 W/m 13,4 C 14,9 C 0,0 km/h (0 Bft)
20.07.2019 03:05 14,9 C 90 % 1013,8 hPa 0,0 l/m 0,0 km/h (0 Bft) N 0 0 min 0 W/m 13,3 C 14,9 C 0,0 km/h (0 Bft)
20.07.2019 03:00 15,1 C 90 % 1013,7 hPa 0,0 l/m 0,0 km/h (0 Bft) N 0 0 min 0 W/m 13,5 C 15,1 C 0,0 km/h (0 Bft)
20.07.2019 02:55 15,0 C 90 % 1013,8 hPa 0,0 l/m 0,0 km/h (0 Bft) N 0 0 min 0 W/m 13,4 C 15,0 C 0,0 km/h (0 Bft)
20.07.2019 02:50 15,0 C 90 % 1013,7 hPa 0,0 l/m 0,0 km/h (0 Bft) N 0 0 min 0 W/m 13,4 C 15,0 C 0,0 km/h (0 Bft)
20.07.2019 02:45 15,1 C 89 % 1013,7 hPa 0,0 l/m 0,0 km/h (0 Bft) N 0 0 min 0 W/m 13,3 C 15,1 C 0,0 km/h (0 Bft)
20.07.2019 02:40 15,1 C 89 % 1013,8 hPa 0,0 l/m 0,0 km/h (0 Bft) N 0 0 min 0 W/m 13,3 C 15,1 C 0,0 km/h (0 Bft)
20.07.2019 02:35 15,1 C 89 % 1013,8 hPa 0,0 l/m 0,0 km/h (0 Bft) N 0 0 min 0 W/m 13,3 C 15,1 C 0,0 km/h (0 Bft)
20.07.2019 02:30 15,2 C 88 % 1013,8 hPa 0,0 l/m 0,0 km/h (0 Bft) N 0 0 min 0 W/m 13,2 C 15,2 C 0,0 km/h (0 Bft)
20.07.2019 02:25 15,3 C 88 % 1013,8 hPa 0,0 l/m 0,0 km/h (0 Bft) N 0 0 min 0 W/m 13,3 C 15,3 C 0,0 km/h (0 Bft)
20.07.2019 02:20 15,4 C 87 % 1013,9 hPa 0,0 l/m 0,0 km/h (0 Bft) N 0 0 min 0 W/m 13,2 C 15,4 C 0,0 km/h (0 Bft)
20.07.2019 02:15 15,6 C 87 % 1013,9 hPa 0,0 l/m 0,0 km/h (0 Bft) N 0 0 min 0 W/m 13,4 C 15,6 C 0,0 km/h (0 Bft)
20.07.2019 02:10 15,9 C 87 % 1013,9 hPa 0,0 l/m 0,0 km/h (0 Bft) N 0 0 min 0 W/m 13,7 C 15,9 C 0,0 km/h (0 Bft)
20.07.2019 02:05 16,1 C 88 % 1013,9 hPa 0,0 l/m 0,0 km/h (0 Bft) N 0 0 min 0 W/m 14,1 C 16,1 C 0,0 km/h (0 Bft)
20.07.2019 02:00 16,1 C 88 % 1013,9 hPa 0,0 l/m 0,0 km/h (0 Bft) N 0 0 min 0 W/m 14,1 C 16,1 C 0,0 km/h (0 Bft)
20.07.2019 01:55 16,1 C 88 % 1014,0 hPa 0,0 l/m 0,0 km/h (0 Bft) N 0 0 min 0 W/m 14,1 C 16,1 C 0,0 km/h (0 Bft)
20.07.2019 01:50 16,1 C 87 % 1014,0 hPa 0,0 l/m 0,0 km/h (0 Bft) N 0 0 min 0 W/m 13,9 C 16,1 C 0,0 km/h (0 Bft)
20.07.2019 01:45 16,2 C 87 % 1014,0 hPa 0,0 l/m 0,0 km/h (0 Bft) N 0 0 min 0 W/m 14,0 C 16,2 C 0,0 km/h (0 Bft)
20.07.2019 01:40 16,2 C 87 % 1013,9 hPa 0,0 l/m 0,0 km/h (0 Bft) N 0 0 min 0 W/m 14,0 C 16,2 C 0,0 km/h (0 Bft)
20.07.2019 01:35 16,3 C 87 % 1014,0 hPa 0,0 l/m 0,0 km/h (0 Bft) N 0 0 min 0 W/m 14,1 C 16,3 C 0,0 km/h (0 Bft)
20.07.2019 01:30 16,3 C 87 % 1014,0 hPa 0,0 l/m 0,0 km/h (0 Bft) N 0 0 min 0 W/m 14,1 C 16,3 C 0,0 km/h (0 Bft)
20.07.2019 01:25 16,4 C 87 % 1014,0 hPa 0,0 l/m 0,0 km/h (0 Bft) N 0 0 min 0 W/m 14,2 C 16,4 C 0,0 km/h (0 Bft)
20.07.2019 01:20 16,4 C 87 % 1014,0 hPa 0,0 l/m 0,0 km/h (0 Bft) N 0 0 min 0 W/m 14,2 C 16,4 C 0,0 km/h (0 Bft)
20.07.2019 01:15 16,4 C 87 % 1014,0 hPa 0,0 l/m 0,0 km/h (0 Bft) N 0 0 min 0 W/m 14,2 C 16,4 C 0,0 km/h (0 Bft)
20.07.2019 01:10 16,4 C 87 % 1014,0 hPa 0,0 l/m 0,0 km/h (0 Bft) N 0 0 min 0 W/m 14,2 C 16,4 C 0,0 km/h (0 Bft)
20.07.2019 01:05 16,4 C 87 % 1013,9 hPa 0,0 l/m 0,0 km/h (0 Bft) S-SW 202 0 min 0 W/m 14,2 C 16,4 C 4,8 km/h (1 Bft)
20.07.2019 01:00 16,5 C 87 % 1014,1 hPa 0,0 l/m 0,0 km/h (0 Bft) N 0 0 min 0 W/m 14,3 C 16,5 C 0,0 km/h (0 Bft)
20.07.2019 00:55 16,5 C 87 % 1014,0 hPa 0,0 l/m 0,0 km/h (0 Bft) N 0 0 min 0 W/m 14,3 C 16,5 C 0,0 km/h (0 Bft)
20.07.2019 00:50 16,6 C 86 % 1014,1 hPa 0,0 l/m 3,2 km/h (1 Bft) S-SW 202 0 min 0 W/m 14,2 C 16,6 C 4,8 km/h (1 Bft)
20.07.2019 00:45 16,7 C 86 % 1014,1 hPa 0,0 l/m 0,0 km/h (0 Bft) N 0 0 min 0 W/m 14,3 C 16,7 C 0,0 km/h (0 Bft)
20.07.2019 00:40 16,8 C 86 % 1014,0 hPa 0,0 l/m 0,0 km/h (0 Bft) N 0 0 min 0 W/m 14,4 C 16,8 C 0,0 km/h (0 Bft)
20.07.2019 00:35 16,8 C 86 % 1014,0 hPa 0,0 l/m 0,0 km/h (0 Bft) N 0 0 min 0 W/m 14,4 C 16,8 C 0,0 km/h (0 Bft)
20.07.2019 00:30 16,9 C 85 % 1014,0 hPa 0,0 l/m 0,0 km/h (0 Bft) N 0 0 min 0 W/m 14,4 C 16,9 C 0,0 km/h (0 Bft)
20.07.2019 00:25 16,9 C 85 % 1014,0 hPa 0,0 l/m 0,0 km/h (0 Bft) N 0 0 min 0 W/m 14,4 C 16,9 C 0,0 km/h (0 Bft)
20.07.2019 00:20 17,0 C 85 % 1014,0 hPa 0,0 l/m 0,0 km/h (0 Bft) N 0 0 min 0 W/m 14,5 C 17,0 C 0,0 km/h (0 Bft)
20.07.2019 00:15 17,1 C 85 % 1014,0 hPa 0,0 l/m 0,0 km/h (0 Bft) N 0 0 min 0 W/m 14,6 C 17,1 C 0,0 km/h (0 Bft)
20.07.2019 00:10 17,1 C 85 % 1014,1 hPa 0,0 l/m 0,0 km/h (0 Bft) N 0 0 min 0 W/m 14,6 C 17,1 C 0,0 km/h (0 Bft)
20.07.2019 00:05 17,1 C 85 % 1014,0 hPa 0,0 l/m 0,0 km/h (0 Bft) N 0 0 min 0 W/m 14,6 C 17,1 C 0,0 km/h (0 Bft)
20.07.2019 00:00 17,1 C 85 % 1014,0 hPa 0,0 l/m 0,0 km/h (0 Bft) N 0 0 min 0 W/m 14,6 C 17,1 C 0,0 km/h (0 Bft)
19.07.2019 23:55 17,2 C 85 % 1014,0 hPa 0,0 l/m 0,0 km/h (0 Bft) N 0 0 min 0 W/m 14,7 C 17,2 C 0,0 km/h (0 Bft)
19.07.2019 23:50 17,2 C 84 % 1014,0 hPa 0,0 l/m 1,6 km/h (1 Bft) S-SW 202 0 min 0 W/m 14,5 C 17,2 C 4,8 km/h (1 Bft)
19.07.2019 23:45 17,3 C 83 % 1013,9 hPa 0,0 l/m 0,0 km/h (0 Bft) W-SW 247 0 min 0 W/m 14,4 C 17,3 C 3,2 km/h (1 Bft)
19.07.2019 23:40 17,3 C 83 % 1013,9 hPa 0,0 l/m 0,0 km/h (0 Bft) N 0 0 min 0 W/m 14,4 C 17,3 C 0,0 km/h (0 Bft)
19.07.2019 23:35 17,2 C 83 % 1013,9 hPa 0,0 l/m 0,0 km/h (0 Bft) N 0 0 min 0 W/m 14,3 C 17,2 C 0,0 km/h (0 Bft)
19.07.2019 23:30 17,2 C 83 % 1013,9 hPa 0,0 l/m 0,0 km/h (0 Bft) N 0 0 min 0 W/m 14,3 C 17,2 C 0,0 km/h (0 Bft)
19.07.2019 23:25 17,2 C 82 % 1013,8 hPa 0,0 l/m 0,0 km/h (0 Bft) N 0 0 min 0 W/m 14,1 C 17,2 C 0,0 km/h (0 Bft)
19.07.2019 23:20 17,2 C 81 % 1013,9 hPa 0,0 l/m 0,0 km/h (0 Bft) N 0 0 min 0 W/m 13,9 C 17,2 C 0,0 km/h (0 Bft)
19.07.2019 23:15 17,2 C 81 % 1013,9 hPa 0,0 l/m 0,0 km/h (0 Bft) N 0 0 min 0 W/m 13,9 C 17,2 C 0,0 km/h (0 Bft)
19.07.2019 23:10 17,2 C 81 % 1013,8 hPa 0,0 l/m 0,0 km/h (0 Bft) N 0 0 min 0 W/m 13,9 C 17,2 C 0,0 km/h (0 Bft)
19.07.2019 23:05 17,1 C 81 % 1013,8 hPa 0,0 l/m 0,0 km/h (0 Bft) N 0 0 min 0 W/m 13,8 C 17,1 C 0,0 km/h (0 Bft)
19.07.2019 23:00 17,1 C 81 % 1013,8 hPa 0,0 l/m 0,0 km/h (0 Bft) W 270 0 min 0 W/m 13,8 C 17,1 C 0,0 km/h (0 Bft)
19.07.2019 22:55 17,2 C 81 % 1013,9 hPa 0,0 l/m 0,0 km/h (0 Bft) W 270 0 min 0 W/m 13,9 C 17,2 C 0,0 km/h (0 Bft)
19.07.2019 22:50 17,2 C 81 % 1013,8 hPa 0,0 l/m 0,0 km/h (0 Bft) W 269 0 min 0 W/m 13,9 C 17,2 C 0,0 km/h (0 Bft)
19.07.2019 22:45 17,4 C 81 % 1013,9 hPa 0,0 l/m 0,0 km/h (0 Bft) W 270 0 min 0 W/m 14,1 C 17,4 C 0,0 km/h (0 Bft)
19.07.2019 22:40 17,6 C 80 % 1013,7 hPa 0,0 l/m 0,0 km/h (0 Bft) W 270 0 min 0 W/m 14,1 C 17,6 C 0,0 km/h (0 Bft)
19.07.2019 22:35 17,9 C 79 % 1013,8 hPa 0,0 l/m 0,0 km/h (0 Bft) W 270 0 min 0 W/m 14,2 C 17,9 C 0,0 km/h (0 Bft)
19.07.2019 22:30 18,0 C 79 % 1013,8 hPa 0,0 l/m 0,0 km/h (0 Bft) W 270 0 min 0 W/m 14,3 C 18,0 C 0,0 km/h (0 Bft)
19.07.2019 22:25 18,1 C 78 % 1013,7 hPa 0,0 l/m 0,0 km/h (0 Bft) W 270 0 min 0 W/m 14,2 C 18,1 C 0,0 km/h (0 Bft)
19.07.2019 22:20 18,2 C 78 % 1013,7 hPa 0,0 l/m 0,0 km/h (0 Bft) W 270 0 min 0 W/m 14,3 C 18,2 C 0,0 km/h (0 Bft)
19.07.2019 22:15 18,2 C 78 % 1013,7 hPa 0,0 l/m 0,0 km/h (0 Bft) W 269 0 min 0 W/m 14,3 C 18,2 C 0,0 km/h (0 Bft)
19.07.2019 22:10 18,4 C 77 % 1013,6 hPa 0,0 l/m 0,0 km/h (0 Bft) W 270 0 min 0 W/m 14,3 C 18,4 C 0,0 km/h (0 Bft)
19.07.2019 22:05 18,7 C 77 % 1013,6 hPa 0,0 l/m 0,0 km/h (0 Bft) W 270 0 min 0 W/m 14,6 C 18,7 C 0,0 km/h (0 Bft)
19.07.2019 22:00 18,9 C 75 % 1013,6 hPa 0,0 l/m 0,0 km/h (0 Bft) W 270 0 min 0 W/m 14,4 C 18,9 C 0,0 km/h (0 Bft)
19.07.2019 21:55 19,2 C 75 % 1013,6 hPa 0,0 l/m 0,0 km/h (0 Bft) W 269 0 min 0 W/m 14,7 C 19,2 C 0,0 km/h (0 Bft)
19.07.2019 21:50 19,3 C 73 % 1013,6 hPa 0,0 l/m 0,0 km/h (0 Bft) W 269 0 min 0 W/m 14,3 C 19,3 C 0,0 km/h (0 Bft)
19.07.2019 21:45 19,5 C 73 % 1013,6 hPa 0,0 l/m 0,0 km/h (0 Bft) W 270 0 min 0 W/m 14,5 C 19,5 C 0,0 km/h (0 Bft)
19.07.2019 21:40 19,7 C 74 % 1013,4 hPa 0,0 l/m 0,0 km/h (0 Bft) W 270 0 min 0 W/m 14,9 C 19,7 C 0,0 km/h (0 Bft)
19.07.2019 21:35 20,0 C 71 % 1013,4 hPa 0,0 l/m 0,0 km/h (0 Bft) W 269 0 min 0 W/m 14,6 C 20,0 C 0,0 km/h (0 Bft)
19.07.2019 21:30 20,3 C 71 % 1013,4 hPa 0,0 l/m 0,0 km/h (0 Bft) W 270 0 min 0 W/m 14,9 C 20,3 C 0,0 km/h (0 Bft)
19.07.2019 21:25 20,8 C 69 % 1013,3 hPa 0,0 l/m 0,0 km/h (0 Bft) W 270 0 min 0 W/m 14,9 C 20,8 C 0,0 km/h (0 Bft)
19.07.2019 21:20 21,2 C 67 % 1013,3 hPa 0,0 l/m 0,0 km/h (0 Bft) W 270 0 min 0 W/m 14,8 C 21,2 C 0,0 km/h (0 Bft)
19.07.2019 21:15 21,7 C 66 % 1013,2 hPa 0,0 l/m 0,0 km/h (0 Bft) W 269 0 min 5 W/m 15,1 C 21,7 C 0,0 km/h (0 Bft)
19.07.2019 21:10 21,9 C 64 % 1013,2 hPa 0,0 l/m 0,0 km/h (0 Bft) W 270 0 min 7 W/m 14,8 C 21,9 C 0,0 km/h (0 Bft)
19.07.2019 21:05 22,3 C 64 % 1013,2 hPa 0,0 l/m 0,0 km/h (0 Bft) W 270 0 min 11 W/m 15,2 C 22,3 C 0,0 km/h (0 Bft)
19.07.2019 21:00 22,7 C 62 % 1013,1 hPa 0,0 l/m 0,0 km/h (0 Bft) W 269 0 min 14 W/m 15,0 C 22,7 C 0,0 km/h (0 Bft)
19.07.2019 20:55 23,1 C 61 % 1013,1 hPa 0,0 l/m 0,0 km/h (0 Bft) W 270 0 min 18 W/m 15,2 C 23,1 C 0,0 km/h (0 Bft)
19.07.2019 20:50 23,6 C 60 % 1013,1 hPa 0,0 l/m 0,0 km/h (0 Bft) W 270 0 min 23 W/m 15,4 C 23,6 C 0,0 km/h (0 Bft)
19.07.2019 20:45 24,0 C 59 % 1013,1 hPa 0,0 l/m 0,0 km/h (0 Bft) W 270 0 min 28 W/m 15,5 C 24,0 C 0,0 km/h (0 Bft)
19.07.2019 20:40 24,2 C 56 % 1013,1 hPa 0,0 l/m 0,0 km/h (0 Bft) W 269 0 min 33 W/m 14,9 C 24,2 C 0,0 km/h (0 Bft)
19.07.2019 20:35 24,3 C 54 % 1013,1 hPa 0,0 l/m 0,0 km/h (0 Bft) W 269 0 min 39 W/m 14,4 C 24,3 C 0,0 km/h (0 Bft)
19.07.2019 20:30 24,3 C 53 % 1013,1 hPa 0,0 l/m 0,0 km/h (0 Bft) W 270 0 min 44 W/m 14,1 C 24,3 C 0,0 km/h (0 Bft)
19.07.2019 20:25 24,4 C 53 % 1013,0 hPa 0,0 l/m 0,0 km/h (0 Bft) W 270 0 min 49 W/m 14,2 C 24,4 C 1,6 km/h (1 Bft)
19.07.2019 20:20 24,6 C 53 % 1013,0 hPa 0,0 l/m 0,0 km/h (0 Bft) W 269 0 min 62 W/m 14,4 C 24,6 C 0,0 km/h (0 Bft)
19.07.2019 20:15 24,7 C 52 % 1013,0 hPa 0,0 l/m 0,3 km/h (0 Bft) W 270 0 min 67 W/m 14,2 C 24,7 C 3,2 km/h (1 Bft)
19.07.2019 20:10 24,9 C 51 % 1013,0 hPa 0,0 l/m 0,6 km/h (0 Bft) W 270 0 min 77 W/m 14,1 C 24,9 C 3,2 km/h (1 Bft)
19.07.2019 20:05 25,0 C 52 % 1013,0 hPa 0,0 l/m 0,0 km/h (0 Bft) W 269 0 min 91 W/m 14,4 C 25,0 C 1,6 km/h (1 Bft)
19.07.2019 20:00 25,1 C 51 % 1013,0 hPa 0,0 l/m 0,4 km/h (0 Bft) W 269 0 min 109 W/m 14,2 C 25,1 C 4,8 km/h (1 Bft)
19.07.2019 19:55 25,1 C 50 % 1012,9 hPa 0,0 l/m 1,2 km/h (1 Bft) W 270 0 min 113 W/m 13,9 C 25,1 C 9,7 km/h (2 Bft)
19.07.2019 19:50 25,2 C 50 % 1013,0 hPa 0,0 l/m 0,4 km/h (0 Bft) W 259 0 min 149 W/m 14,0 C 25,2 C 4,8 km/h (1 Bft)
19.07.2019 19:45 25,2 C 51 % 1012,9 hPa 0,0 l/m 1,4 km/h (1 Bft) W-SW 257 5 min 158 W/m 14,3 C 25,2 C 6,4 km/h (2 Bft)
19.07.2019 19:40 25,2 C 50 % 1012,9 hPa 0,0 l/m 1,0 km/h (0 Bft) W 259 0 min 141 W/m 14,0 C 25,2 C 6,4 km/h (2 Bft)
19.07.2019 19:35 25,2 C 49 % 1012,9 hPa 0,0 l/m 0,9 km/h (0 Bft) W 259 0 min 128 W/m 13,7 C 25,2 C 6,4 km/h (2 Bft)
19.07.2019 19:30 25,2 C 49 % 1012,9 hPa 0,0 l/m 1,5 km/h (1 Bft) W-SW 258 0 min 127 W/m 13,7 C 25,2 C 9,7 km/h (2 Bft)
19.07.2019 19:25 25,2 C 49 % 1012,9 hPa 0,0 l/m 0,1 km/h (0 Bft) W-NW 288 0 min 139 W/m 13,7 C 25,2 C 4,8 km/h (1 Bft)
19.07.2019 19:20 25,2 C 51 % 1012,9 hPa 0,0 l/m 0,0 km/h (0 Bft) W-NW 289 0 min 127 W/m 14,3 C 25,2 C 1,6 km/h (1 Bft)
19.07.2019 19:15 25,2 C 50 % 1012,9 hPa 0,0 l/m 1,3 km/h (1 Bft) W-NW 289 0 min 144 W/m 14,0 C 25,2 C 8,0 km/h (2 Bft)
19.07.2019 19:10 25,2 C 50 % 1012,9 hPa 0,0 l/m 1,4 km/h (1 Bft) W-NW 290 0 min 146 W/m 14,0 C 25,2 C 11,3 km/h (2 Bft)
19.07.2019 19:05 25,2 C 49 % 1012,9 hPa 0,0 l/m 0,3 km/h (0 Bft) W-NW 302 5 min 163 W/m 13,7 C 25,2 C 3,2 km/h (1 Bft)
19.07.2019 19:00 25,3 C 48 % 1012,9 hPa 0,0 l/m 0,6 km/h (0 Bft) W-NW 302 5 min 162 W/m 13,5 C 25,3 C 6,4 km/h (2 Bft)
19.07.2019 18:55 25,3 C 50 % 1012,9 hPa 0,0 l/m 1,0 km/h (0 Bft) W-NW 302 0 min 151 W/m 14,1 C 25,3 C 4,8 km/h (1 Bft)
19.07.2019 18:50 25,3 C 49 % 1013,0 hPa 0,0 l/m 0,0 km/h (0 Bft) W-NW 302 5 min 162 W/m 13,8 C 25,3 C 1,6 km/h (1 Bft)
19.07.2019 18:45 25,4 C 49 % 1013,0 hPa 0,0 l/m 2,8 km/h (1 Bft) W-NW 302 5 min 165 W/m 13,9 C 25,4 C 12,9 km/h (3 Bft)
19.07.2019 18:40 25,5 C 49 % 1013,1 hPa 0,0 l/m 2,4 km/h (1 Bft) W-NW 295 5 min 167 W/m 14,0 C 25,5 C 14,5 km/h (3 Bft)
19.07.2019 18:35 25,6 C 50 % 1013,1 hPa 0,0 l/m 2,5 km/h (1 Bft) W 277 5 min 160 W/m 14,4 C 25,6 C 11,3 km/h (2 Bft)
19.07.2019 18:30 25,5 C 52 % 1013,0 hPa 0,0 l/m 1,7 km/h (1 Bft) W-NW 290 5 min 174 W/m 14,9 C 25,5 C 11,3 km/h (2 Bft)
19.07.2019 18:25 25,5 C 50 % 1013,1 hPa 0,0 l/m 5,8 km/h (2 Bft) W-NW 296 5 min 350 W/m 14,3 C 25,5 C 14,5 km/h (3 Bft)
19.07.2019 18:20 25,6 C 51 % 1013,1 hPa 0,0 l/m 3,7 km/h (1 Bft) NW 306 5 min 299 W/m 14,7 C 25,6 C 12,9 km/h (3 Bft)
19.07.2019 18:15 25,8 C 50 % 1013,2 hPa 0,0 l/m 2,8 km/h (1 Bft) W 270 5 min 223 W/m 14,6 C 25,8 C 11,3 km/h (2 Bft)
19.07.2019 18:10 25,9 C 53 % 1013,2 hPa 0,0 l/m 2,7 km/h (1 Bft) W-NW 302 5 min 202 W/m 15,6 C 25,9 C 12,9 km/h (3 Bft)
19.07.2019 18:05 26,1 C 51 % 1013,1 hPa 0,0 l/m 3,8 km/h (1 Bft) N-NW 331 5 min 374 W/m 15,2 C 26,1 C 12,9 km/h (3 Bft)
19.07.2019 18:00 25,9 C 52 % 1013,1 hPa 0,0 l/m 2,7 km/h (1 Bft) W 281 5 min 446 W/m 15,3 C 25,9 C 11,3 km/h (2 Bft)
19.07.2019 17:55 25,6 C 53 % 1013,2 hPa 0,0 l/m 1,7 km/h (1 Bft) W-NW 286 5 min 513 W/m 15,3 C 25,6 C 12,9 km/h (3 Bft)
19.07.2019 17:50 25,2 C 55 % 1013,1 hPa 0,0 l/m 0,0 km/h (0 Bft) O-SO 105 5 min 513 W/m 15,5 C 25,2 C 1,6 km/h (1 Bft)
19.07.2019 17:45 24,9 C 57 % 1013,1 hPa 0,0 l/m 0,0 km/h (0 Bft) O-SO 107 5 min 322 W/m 15,8 C 24,9 C 1,6 km/h (1 Bft)
19.07.2019 17:40 24,8 C 58 % 1013,2 hPa 0,0 l/m 0,0 km/h (0 Bft) O-SO 113 0 min 134 W/m 16,0 C 24,8 C 0,0 km/h (0 Bft)
19.07.2019 17:35 24,8 C 59 % 1013,2 hPa 0,0 l/m 0,0 km/h (0 Bft) O-SO 113 0 min 127 W/m 16,2 C 24,8 C 0,0 km/h (0 Bft)
19.07.2019 17:30 24,8 C 57 % 1013,2 hPa 0,0 l/m 0,0 km/h (0 Bft) O-SO 113 5 min 160 W/m 15,7 C 24,8 C 0,0 km/h (0 Bft)
19.07.2019 17:25 24,8 C 59 % 1013,2 hPa 0,0 l/m 0,0 km/h (0 Bft) O-SO 113 5 min 176 W/m 16,2 C 24,8 C 0,0 km/h (0 Bft)
19.07.2019 17:20 24,8 C 57 % 1013,1 hPa 0,0 l/m 0,0 km/h (0 Bft) O-SO 113 5 min 171 W/m 15,7 C 24,8 C 0,0 km/h (0 Bft)
19.07.2019 17:15 24,8 C 57 % 1013,1 hPa 0,0 l/m 0,0 km/h (0 Bft) O-SO 113 5 min 188 W/m 15,7 C 24,8 C 0,0 km/h (0 Bft)
19.07.2019 17:10 24,8 C 59 % 1013,1 hPa 0,0 l/m 0,0 km/h (0 Bft) O-SO 113 5 min 227 W/m 16,2 C 24,8 C 1,6 km/h (1 Bft)
19.07.2019 17:05 24,8 C 60 % 1013,2 hPa 0,0 l/m 0,0 km/h (0 Bft) O-SO 113 5 min 281 W/m 16,5 C 24,8 C 0,0 km/h (0 Bft)
19.07.2019 17:00 24,8 C 57 % 1013,2 hPa 0,0 l/m 0,9 km/h (0 Bft) O-SO 113 5 min 223 W/m 15,7 C 24,8 C 11,3 km/h (2 Bft)
_ Min-Zeit 05:50 16:25 16:30 - 17:05 - - - - 05:50 05:50 17:05
Minimum _ 12,8 C 34 % 1009,4 hPa - 0,0 km/h (0 Bft) - - - - 11,7 C 12,8 C 0,0 km/h (0 Bft)
_ Max-Zeit 16:20 07:05 00:10 17:00 10:50 - - 17:00 13:05 09:20 16:20 16:00
Maximum _ 32,7 C 95 % 1014,1 hPa 0,0 l/m 12,5 km/h
SO (2 Bft)
- - 5 min 962 W/m 17,2 C 32,7 C 35,4 km/h
S-SO (5 Bft)
Durchschnitt _ 21,8 C 68 % 1012,8 hPa #0,0 l/m 2,0 km/h (1 Bft) S-SO - #8:05 h 468 W/m 14,7 C 21,8 C 6,7 km/h (2 Bft)